[[{"header":{"parameterUnit":"m.s-1","parameterCategory":1,"la1":30.2991,"la2":30.254,"lo1":-89.0895,"lo2":-89.0444,"dy":0.0017,"dx":0.0017,"nx":28,"ny":28,"refTime":"2024-02-24T09:00:00:Z","depth":0,"parameterNumber":2,"parameterNumberName":"U-component_of_WINDS"},"data":[0,0,0,0,0,0,0,0,0,0,0,0,0,0,0,0,0,0,0,0,0,0,0,0,0,0,0,0,0,0,0,0,0,0,0,0,0,0,0,0,0,0,0,0,0,0,0,0,0,0,0,0,0,0,0,0,0,0,1.9658,1.9659,0,1.9721,1.9721,1.9722,1.9712,1.9711,1.971,1.9709,1.9774,1.9777,1.978,0,0,0,0,0,0,0,0,0,0,0,0,0,1.9531,1.9533,1.9658,1.9659,1.9659,1.9721,1.9721,1.9722,1.9712,1.9711,1.971,1.9708,1.9773,1.9777,1.978,0,0,0,0,0,0,0,0,0,0,0,0,0,1.9589,1.9534,1.9658,1.9662,1.9663,1.972,1.9721,1.9723,1.9712,1.9711,1.9709,1.9708,1.9772,1.9776,1.978,1.9838,0,0,1.9793,1.9795,0,0,0,0,0,0,0,0,1.9586,1.9594,1.966,1.9662,1.9663,1.9707,1.9701,1.9761,1.9713,1.9694,1.9709,1.9707,1.9753,1.9759,1.9774,1.9841,1.9844,1.9793,1.9796,1.9798,1.9799,0,0,0,0,0,0,0,1.9582,1.9591,1.9683,1.9661,1.9663,1.9661,1.9667,1.9712,1.9732,1.9695,1.9695,1.9702,1.9754,1.977,1.9776,1.9845,1.9793,1.9797,1.9799,1.9801,1.9965,1.9967,0,0,0,0,0,0,1.9577,1.9588,1.9681,1.9685,1.962,1.9665,1.9672,1.9694,1.9731,1.9735,1.9703,1.9701,1.9764,1.9771,1.9778,1.985,1.9798,1.9801,1.9804,1.9963,1.9966,1.9968,0,0,0,0,0,0,1.9574,1.9585,1.9678,1.9636,1.9648,1.9669,1.9694,1.9696,1.9713,1.9737,1.9741,1.9717,1.9763,1.9772,1.9824,1.9852,1.9803,1.9807,1.9961,1.9964,1.9967,1.9992,0,0,0,0,0,0,1.957,1.9584,1.9606,1.9637,1.965,1.9722,1.9696,1.9699,1.972,1.9718,1.9751,1.9755,1.9762,1.9818,1.9828,1.9856,1.981,1.9959,1.9962,1.9966,1.9989,1.9996,2.0001,0,0,0,0,0,1.9566,1.961,1.9607,1.9618,1.9678,1.9724,1.9732,1.9739,1.9722,1.9745,1.9761,1.9754,1.9847,1.9823,1.9834,1.9865,1.9957,1.9961,1.9965,1.9987,1.9995,2.0001,0,0,0,0,0,0,1.9582,1.9614,1.9611,1.9667,1.9693,1.9722,1.9751,1.9747,1.9779,1.9776,1.9784,1.9791,1.9844,1.9859,1.9832,1.9924,1.99,1.9906,1.9912,1.992,1.9926,1.9921,1.9814,0,0,0,0,0,1.9592,1.9627,1.9653,1.97,1.9713,1.973,1.975,1.9754,1.9781,1.9792,1.9812,1.9839,1.9875,1.9898,1.9932,1.9991,1.9999,2.0018,2.0024,2.0029,2.0035,2.0069,2.0078,1.9982,1.9982,1.9981,0,0,1.9613,1.9635,1.9657,1.9704,1.9724,1.9761,1.9739,1.9778,1.9805,1.9798,1.9848,1.9864,1.9895,1.9951,1.9977,1.9966,2.0063,2.0034,2.0038,2.0041,2.0075,2.0084,2.0092,1.9984,1.9984,1.9983,0,0,1.9671,1.969,1.9732,1.9753,1.9785,1.9796,1.9806,1.9836,1.9846,1.9897,1.9893,1.9926,1.9986,2.0009,2.0029,2.0096,2.0092,2.0107,2.0139,2.0173,2.018,2.0187,2.0213,2.0222,2.0113,2.0113,2.0113,0,1.9693,1.9747,1.9754,1.9794,1.9816,1.9811,1.9854,1.9874,1.9915,1.9931,1.9917,1.9994,2.0015,2.0077,2.0094,2.0109,2.0122,2.0104,2.0179,2.0186,2.0192,2.0217,2.0226,2.0115,2.0114,2.0114,2.0114,0,1.9774,1.9812,1.9842,1.9882,1.9907,1.9948,1.9962,1.9986,1.9988,2.0001,2.0053,2.0078,2.0117,2.0132,2.0134,2.0196,2.0188,2.0176,2.0153,2.0203,2.0226,2.0235,2.0117,2.0117,2.0116,2.0116,0,0,1.9844,1.9887,1.9899,1.9917,1.9952,1.9982,2.0023,2.0062,2.0084,2.0112,2.0148,2.02,2.0191,2.0213,2.0217,2.0247,2.03,2.0232,2.0233,2.0245,2.0371,2.0381,2.0391,2.0297,2.0299,2.0301,2.0369,0,1.9905,1.9978,1.9986,2.0052,2.0088,2.0084,2.0121,2.0147,2.016,2.0193,2.0208,2.0245,2.0228,2.0242,2.0271,2.0288,2.0326,2.0283,2.0332,2.0334,2.0325,2.0403,2.0412,2.0476,2.0378,2.038,2.0381,0,1.9987,2.0018,2.0088,2.0119,2.0134,2.0167,2.0204,2.0235,2.0265,2.0272,2.0298,2.0299,2.0343,2.0317,2.0379,2.035,2.037,2.0382,2.0385,2.039,2.0361,2.0412,2.0496,2.0506,2.0395,2.0394,2.0393,0,2.0032,2.0092,2.0141,2.0157,2.0195,2.0218,2.0235,2.0263,2.0286,2.0318,2.0334,2.0371,2.0392,2.0421,2.0433,2.0412,2.0495,2.0469,2.0503,2.0503,2.0521,2.052,2.0611,2.0533,2.0533,2.0533,2.0532,0,2.0101,2.0144,2.0162,2.0193,2.0241,2.025,2.0298,2.0314,2.0339,2.0374,2.0373,2.0405,2.0418,2.0453,2.0463,2.0514,2.0523,2.0531,2.0533,2.0532,2.0531,2.0546,2.0542,2.0535,2.0535,2.0534,2.0534,0,2.016,2.0174,2.0228,2.0259,2.0268,2.0302,2.0329,2.036,2.0373,2.0416,2.0427,2.0448,2.0489,2.0504,2.0554,2.056,2.062,2.0617,2.0609,2.061,2.0644,2.0641,2.0749,2.0764,2.0675,2.0676,2.0676,0,2.0203,2.0236,2.0271,2.0294,2.0311,2.0348,2.0372,2.0382,2.0407,2.0445,2.0471,2.0512,2.0545,2.0611,2.0632,2.067,2.067,2.0705,2.0676,2.0674,2.0672,2.0671,2.0675,2.0711,2.0712,2.0712,2.0713,0,2.0279,2.0285,2.0319,2.0356,2.0384,2.0414,2.0443,2.0462,2.0477,2.0505,2.0547,2.0573,2.0624,2.0666,2.0705,2.0724,2.0722,2.0722,2.0732,2.0732,2.0726,2.0731,2.0626,2.072,2.0719,2.0719,2.0718,2.0718,2.0332,2.0362,2.0392,2.043,2.0453,2.048,2.051,2.0527,2.0563,2.0605,2.0609,2.0655,2.0686,2.0739,2.0759,2.0796,2.0786,2.0801,2.0805,2.0808,2.0812,2.072,2.0803,2.0803,2.0803,2.0803,2.0803,0,2.0409,2.0428,2.0464,2.0504,2.0535,2.0529,2.0561,2.0588,2.0628,2.0656,2.0689,2.0739,2.0779,2.0803,2.0843,2.0868,2.0869,2.0879,2.0878,2.0882,2.0817,2.0805,2.0878,2.0878,2.0878,2.0878,2.0878,2.0878,2.0453,2.0504,2.0513,2.0575,2.0594,2.0639,2.0658,2.0683,2.0706,2.0761,2.0795,2.081,2.0837,2.088,2.0917,2.0923,2.0939,2.095,2.0955,2.0894,2.0887,2.0879,2.0868,2.0953,2.0953,2.1018,2.1018,2.1019]},{"header":{"parameterUnit":"m.s-1","parameterCategory":1,"la1":30.2991,"la2":30.254,"lo1":-89.0895,"lo2":-89.0444,"dy":0.0017,"dx":0.0017,"nx":28,"ny":28,"refTime":"2024-02-24T09:00:00:Z","depth":0,"parameterNumber":3,"parameterNumberName":"V-component_of_WINDS"},"data":[0,0,0,0,0,0,0,0,0,0,0,0,0,0,0,0,0,0,0,0,0,0,0,0,0,0,0,0,0,0,0,0,0,0,0,0,0,0,0,0,0,0,0,0,0,0,0,0,0,0,0,0,0,0,0,0,0,0,-2.2869,-2.2869,0,-2.2914,-2.2915,-2.2915,-2.2926,-2.2926,-2.2926,-2.2925,-2.297,-2.2972,-2.2973,0,0,0,0,0,0,0,0,0,0,0,0,0,-2.2791,-2.2792,-2.2869,-2.287,-2.287,-2.2914,-2.2915,-2.2916,-2.2926,-2.2926,-2.2926,-2.2925,-2.297,-2.2972,-2.2973,0,0,0,0,0,0,0,0,0,0,0,0,0,-2.2829,-2.2793,-2.2869,-2.2881,-2.2882,-2.2914,-2.2915,-2.2916,-2.2926,-2.2926,-2.2926,-2.2925,-2.2969,-2.2972,-2.2974,-2.2996,0,0,-2.298,-2.2981,0,0,0,0,0,0,0,0,-2.2827,-2.2832,-2.2879,-2.288,-2.2882,-2.2914,-2.2904,-2.2943,-2.2927,-2.291,-2.2925,-2.2925,-2.2952,-2.2956,-2.2965,-2.2998,-2.3,-2.2981,-2.2982,-2.2983,-2.2984,0,0,0,0,0,0,0,-2.2825,-2.283,-2.2887,-2.2879,-2.2881,-2.2884,-2.2889,-2.2911,-2.2933,-2.2911,-2.2912,-2.2917,-2.2953,-2.2963,-2.2966,-2.3001,-2.2981,-2.2983,-2.2984,-2.2985,-2.3056,-2.3057,0,0,0,0,0,0,-2.282,-2.2828,-2.2885,-2.2888,-2.2853,-2.2886,-2.2891,-2.2904,-2.2933,-2.2936,-2.2918,-2.2918,-2.2959,-2.2964,-2.2968,-2.2997,-2.2983,-2.2985,-2.2986,-2.3056,-2.3056,-2.3057,0,0,0,0,0,0,-2.2818,-2.2825,-2.2884,-2.2858,-2.2866,-2.2887,-2.2902,-2.2905,-2.2916,-2.2938,-2.2941,-2.2924,-2.2959,-2.2965,-2.2989,-2.2998,-2.2986,-2.2988,-2.3055,-2.3056,-2.3057,-2.3054,0,0,0,0,0,0,-2.2816,-2.2824,-2.2833,-2.2859,-2.2867,-2.2905,-2.2903,-2.2907,-2.292,-2.292,-2.2945,-2.2948,-2.2959,-2.2986,-2.2992,-2.3001,-2.299,-2.3054,-2.3055,-2.3056,-2.3053,-2.3054,-2.3056,0,0,0,0,0,-2.2813,-2.283,-2.2833,-2.284,-2.2879,-2.2905,-2.291,-2.2923,-2.292,-2.2929,-2.2944,-2.2947,-2.2997,-2.2989,-2.2995,-2.3005,-2.3054,-2.3055,-2.3056,-2.3053,-2.3054,-2.3056,0,0,0,0,0,0,-2.2804,-2.2833,-2.2838,-2.2863,-2.2882,-2.2907,-2.2918,-2.2924,-2.2943,-2.2943,-2.2957,-2.2963,-2.2987,-2.2999,-2.2989,-2.3029,-2.3025,-2.3028,-2.302,-2.3022,-2.3023,-2.3019,-2.2992,0,0,0,0,0,-2.2805,-2.2824,-2.2849,-2.2869,-2.2878,-2.2897,-2.2909,-2.2917,-2.2937,-2.2944,-2.296,-2.2979,-2.2998,-2.3011,-2.303,-2.3055,-2.3061,-2.3066,-2.3067,-2.3068,-2.3069,-2.3084,-2.3087,-2.3061,-2.3061,-2.3061,0,0,-2.2807,-2.2826,-2.2837,-2.2868,-2.2883,-2.2902,-2.2903,-2.2923,-2.2938,-2.2947,-2.2972,-2.2984,-2.3006,-2.3031,-2.3043,-2.3041,-2.3078,-2.3069,-2.307,-2.3071,-2.3086,-2.3088,-2.309,-2.3062,-2.3062,-2.3062,0,0,-2.2821,-2.2837,-2.2856,-2.2872,-2.2895,-2.2908,-2.2912,-2.2937,-2.2946,-2.2971,-2.2979,-2.2996,-2.3029,-2.3045,-2.3057,-2.3078,-2.3082,-2.3084,-2.309,-2.3104,-2.3106,-2.3108,-2.3116,-2.3118,-2.3086,-2.3086,-2.3086,0,-2.282,-2.285,-2.2865,-2.2885,-2.2898,-2.2909,-2.2928,-2.2943,-2.2971,-2.298,-2.2978,-2.3021,-2.3037,-2.3066,-2.3071,-2.3081,-2.3086,-2.3081,-2.3105,-2.3107,-2.3109,-2.3116,-2.3119,-2.3086,-2.3086,-2.3086,-2.3086,0,-2.2848,-2.2869,-2.2881,-2.2909,-2.2925,-2.2944,-2.2962,-2.2975,-2.2983,-2.2996,-2.3021,-2.304,-2.3064,-2.3072,-2.3079,-2.3102,-2.3101,-2.3102,-2.3098,-2.3111,-2.3118,-2.3121,-2.3086,-2.3086,-2.3086,-2.3086,0,0,-2.2856,-2.2893,-2.2898,-2.2911,-2.2938,-2.2954,-2.2975,-2.2999,-2.301,-2.303,-2.3047,-2.3076,-2.3077,-2.3091,-2.3101,-2.3113,-2.3129,-2.3113,-2.3113,-2.3115,-2.3157,-2.3155,-2.3158,-2.3133,-2.3133,-2.3134,-2.3155,0,-2.2873,-2.291,-2.2925,-2.2955,-2.2974,-2.2985,-2.3003,-2.3022,-2.3035,-2.3053,-2.3067,-2.3087,-2.3088,-2.3096,-2.3109,-2.3124,-2.3138,-2.3123,-2.3149,-2.315,-2.3143,-2.3162,-2.3161,-2.3179,-2.3158,-2.3158,-2.3159,0,-2.2897,-2.2918,-2.2951,-2.2977,-2.2985,-2.3001,-2.3025,-2.3042,-2.3064,-2.3072,-2.3089,-2.3097,-2.3119,-2.3115,-2.3146,-2.3136,-2.3147,-2.3156,-2.3157,-2.316,-2.3154,-2.3165,-2.3186,-2.3188,-2.3163,-2.3163,-2.3162,0,-2.29,-2.2936,-2.296,-2.2971,-2.3002,-2.3013,-2.3026,-2.3048,-2.3062,-2.3082,-2.3091,-2.3114,-2.3127,-2.3144,-2.3159,-2.3155,-2.3188,-2.3185,-2.3196,-2.3196,-2.3202,-2.3201,-2.3224,-2.321,-2.321,-2.321,-2.321,0,-2.2917,-2.2936,-2.2962,-2.2976,-2.2999,-2.3015,-2.3037,-2.3051,-2.307,-2.3088,-2.3099,-2.3115,-2.3134,-2.3153,-2.3165,-2.3189,-2.3194,-2.3202,-2.3205,-2.3201,-2.32,-2.3208,-2.3207,-2.3211,-2.3211,-2.321,-2.321,0,-2.2923,-2.2941,-2.2968,-2.2995,-2.3003,-2.3018,-2.3042,-2.3056,-2.3071,-2.3093,-2.3099,-2.3121,-2.3144,-2.3161,-2.319,-2.3199,-2.3224,-2.3227,-2.3217,-2.3218,-2.3228,-2.3226,-2.3257,-2.3262,-2.3244,-2.3244,-2.3245,0,-2.2932,-2.2947,-2.2977,-2.299,-2.3004,-2.3024,-2.3039,-2.3056,-2.3071,-2.3098,-2.3109,-2.3134,-2.3153,-2.319,-2.3208,-2.3231,-2.3235,-2.3244,-2.3238,-2.3234,-2.3235,-2.3233,-2.3235,-2.3244,-2.3244,-2.3244,-2.3244,0,-2.2947,-2.2955,-2.2976,-2.3,-2.3017,-2.3037,-2.3057,-2.3067,-2.3088,-2.3104,-2.3128,-2.3144,-2.3175,-2.3199,-2.3224,-2.3237,-2.3244,-2.3246,-2.325,-2.3246,-2.3239,-2.3243,-2.3218,-2.3245,-2.3245,-2.3245,-2.3245,-2.3245,-2.2954,-2.2969,-2.2992,-2.3015,-2.3032,-2.3051,-2.3067,-2.3083,-2.3104,-2.3131,-2.314,-2.3165,-2.3187,-2.3222,-2.3236,-2.3256,-2.3256,-2.3261,-2.3262,-2.3263,-2.3263,-2.3237,-2.3261,-2.3261,-2.3261,-2.3261,-2.3261,0,-2.2969,-2.2986,-2.3007,-2.3035,-2.3053,-2.3059,-2.3082,-2.3097,-2.3119,-2.3139,-2.3159,-2.3187,-2.3211,-2.3232,-2.3256,-2.3268,-2.3272,-2.3274,-2.3273,-2.3276,-2.3262,-2.3256,-2.3271,-2.327,-2.327,-2.327,-2.327,-2.327,-2.2979,-2.3004,-2.3016,-2.3049,-2.3065,-2.309,-2.3103,-2.312,-2.3137,-2.3168,-2.3188,-2.3202,-2.3223,-2.3249,-2.3271,-2.3277,-2.3285,-2.3286,-2.3292,-2.3278,-2.3277,-2.3276,-2.3271,-2.3288,-2.3288,-2.3305,-2.3305,-2.3306]}]]